www.pogodaiklimat.ru

Погода и климат >> Архив погоды >> Гондурас >> Чолутека


ПОГОДА в Чолутеке

  • Прогноз погоды в Чолутеке
  • Монитор погоды в Чолутеке

АРХИВ ПОГОДЫ в Чолутеке

Время (UTC), дата Ветер
(напр.,м/с)
 
Видим.   Явления Облачность Т
(С)
Тd
(С)
f
(%)
Тe
(С)
Тes
(С)
Комфортность P
(гПа)
Po
(гПа)
Тmin
(С)
Tmax
(С)
R
(мм)
R24
(мм)
S
(см)
12 17.02 штиль 0 10 км мгла 9/9 900 м
[Sc]
+25.2 +21.2 79 +32 +32 очень
душно
1013.2 1007.5 +25.2 +37.0
15 17.02 штиль 0 20 км мгла {туман} 8/8 900 м
[Cu med, cong]
+29.4 +21.9 64 +38 +40 очень
душно
1013.2 1007.5
18 17.02 штиль 0 20 км мгла {туман} 6/6 960 м
[Cu med, cong]
+32.8 +22.0 53 +41 +51 опасность
перегрева
1011.9 1006.2 +25.2 +32.8
21 17.02 штиль 0 20 км мгла {туман} 5/5 1020 м
[Cu med, cong]
+35.4 +20.6 42 +42 +47 опасность
перегрева
1011.4 1005.7
00 18.02 Ю 4 20 км мгла {туман} 3/3 900 м
[Cu hum]
+30.6 +21.7 59 +39 +39 очень
душно
1013.0 1007.3 +25.2 +38.0
12 18.02 штиль 0 15 км дым {туман} 3/3 900 м
[Cu hum]
+23.0 +20.0 83 +30 +30 очень
душно
1013.7 1008.0 +23.0 +38.0
15 18.02 С 2 15 км дым {туман} 1/1 900 м
[Cu hum]
+30.8 +22.7 62 +40 +49 очень
душно
1014.2 1008.7
18 18.02 штиль 0 15 км дым {туман} 3/3 1020 м
[Cu hum]
+37.0 +24.0 47 +48 +65 опасность
перегрева
1012.2 1006.5 +23.0 +37.0
21 18.02 штиль 0 15 км дым {туман} 4/4 1020 м
[Cu hum]
+38.0 +23.9 45 +49 +56 опасность
перегрева
1011.2 1005.5
00 19.02 штиль 0 15 км дым {туман} 3/3 900 м
[Cu hum]
+32.2 +23.1 59 +43 +43 опасность
перегрева
1012.4 1006.7 +23.0 +38.0
12 19.02 С 3 15 км дым 3/3 900 м
[Sc]
+26.0 +18.7 64 +31 +31 очень
душно
1012.7 1007.0 +26.0 +38.0
15 19.02 СВ 4 15 км дым {туман} 3/3 900 м
[Cu hum]
+31.2 +18.1 46 +36 +41 очень
душно
1013.2 1006.5
18 19.02 СВ 3 15 км дым {туман} 3/3 1020 м
[Cu hum]
+36.4 +17.2 32 +39 +51 опасность
солнечного
удара
1011.8 1006.1 +26.0 +36.4
21 19.02 Ю 3 15 км дым {туман} 4/4 1020 м
[Cu hum]
+39.2 +20.8 35 +46 +50 опасность
перегрева
1010.7 1005.0
00 20.02 С 6 15 км дым {туман} 5/5 1020 м
[Cu hum]
+33.2 +23.4 57 +44 +44 опасность
перегрева
1011.7 1006.0 +26.0 +39.2
12 20.02 СВ 7 20 км мгла 1/1 900 м
[Sc]
+25.6 +17.6 61 +30 +30 душно 1013.2 1007.5 +25.6 +39.2
15 20.02 С 9 10 км мгла {туман} ясно +29.2 +17.4 49 +33 +34 очень
душно
1013.7 1008.0
18 20.02 С 3 20 км мгла {туман} ясно +32.4 +20.0 48 +39 +54 опасность
солнечного
удара
1012.2 1006.5 +35.6 +36.4
21 20.02 штиль 0 10 км мгла {туман} 4/4 1020 м
[Cu hum]
+38.2 +18.6 32 +42 +49 опасность
перегрева
1011.2 1004.5
00 21.02 З 5 20 км мгла {туман} 3/3 900 м
[Cu hum]
+30.4 +22.8 64 +40 +40 очень
душно
1017.7 1007.0 +25.6 +38.2
12 21.02 С 4 20 км мгла 8/1 900 м
[Sc Ac trans]
+26.2 +18.3 62 +31 +31 очень
душно
1012.4 1006.7 +26.2 +38.2
15 21.02 СВ 5 20 км мгла {туман} 1/1 900 м
[Cu hum]
+31.0 +17.9 46 +35 +40 очень
душно
1011.6 1005.9
18 21.02 С 3 20 км мгла {туман} 3/3 1020 м
[Cu hum]
+36.0 +18.2 35 +40 +52 опасность
солнечного
удара
1010.7 1005.0 +26.2 +36.0
21 21.02 С 4 20 км мгла {туман} 5/5 1020 м
[Cu med, cong]
+39.2 +18.5 30 +43 +46 опасность
перегрева
1009.9 1004.2
00 22.02 З 3 20 км мгла {туман} 5/5 900 м
[Cu hum]
+33.4 +21.1 49 +41 +41 опасность
перегрева
1011.4 1005.7 +26.2 +39.2
15 22.02 СВ 5 10 км мгла {туман} 6/3 1020 м
[Cu hum Ac trans]
+31.2 +21.0 55 +39 +41 очень
душно
1012.7 1007.0
18 22.02 С 5 20 км 6/6 600 м
[Cu Sc Ac trans Ci]
+34.0 +26.0 63 +41 +45 опасность
перегрева
1011.7 1006.0 +26.0 +34.0
21 22.02 В 5 20 км мгла {туман} 8/8 1020 м
[Cu hum]
+38.4 +17.7 30 +42 +42 опасность
перегрева
1010.7 1005.0
00 23.02 СВ 4 20 км мгла {туман} 4/4 600 м
[Cu hum]
+33.2 +22.3 53 +42 +42 опасность
перегрева
1011.9 1006.2 +26.0 +38.4
12 23.02 СВ 5 20 км мгла 3/3 900 м
[Sc Ci fib]
+26.0 +20.3 71 +32 +32 очень
душно
1012.8 1007.1 +26.0 +38.4
15 23.02 С 3 10 км мгла {туман} 3/3 900 м
[Cu hum]
+31.0 +18.9 49 +36 +43 очень
душно
1012.5 1006.8
18 23.02 С 4 20 км мгла {туман} 5/5 1020 м
[Cu hum]
+34.8 +19.8 41 +40 +47 очень
душно
1011.5 1005.8 +26.0 +34.8
21 23.02 С 3 20 км мгла {туман} 6/6 1020 м
[Cu med, cong]
+36.6 +20.4 39 +43 +45 опасность
перегрева
1010.7 1005.0
00 24.02 Ю 4 10 км мгла {туман} 4/4 1020 м
[Cu hum]
+33.4 +21.1 49 +41 +41 опасность
перегрева
1011.7 1006.0 +26.0 +37.4

 

Местоположение метеостанции Чолутека (Гондурас): широта 13.30 долгота -87.18 высота над уровнем моря 48 м.

В архиве по умолчанию представлена погода в Чолутеке за последнюю неделю. Архивные данные за месяц целиком и за предыдущие месяцы, начиная с января 2011 года, Вы можете получить, выбрав интересующий диапазон дат из раскрывающегося списка и нажав кнопку "Ввод!".


*Определитесь, кто Вы:
робот инопланетянин человек

Внимание! Время в таблицах - всемирное. Для получения местного времени необходимо прибавить поправку, которая равна -6 ч.

Смотрите также архив погоды в соседних городах и на ближайших метеорологических станциях:

Погода в Амапале (Гондурас) (51 км)
Погода в Чинандеге (Никарагуа) (75 км)
Погода в Тегусигальпе (Гондурас) (83 км)
Погода в Хинотеге (Никарагуа) (132 км)
Погода в Ла-Эсперансе (Гондурас) (155 км)
Погода в Манагуа (Никарагуа) (168 км)
Погода в Йоро (Гондурас) (208 км)
Погода в Катакамасе (Гондурас) (223 км)
Погода в Хуигальпе (Никарагуа) (237 км)
Погода в Санта-Роза-де-Копане (Гондурас) (239 км)

Пояснения к столбцам:

Ветер - указаны скорость ветра в м/с - средняя за 10 мин, порывы в срок и между сроками (в фигурных скобках) и направление, откуда дует ветер: С - северный, СВ - северо-восточный, В - восточный, ЮВ - юго-восточный, Ю - южный, ЮЗ - юго-западный, З - западный, СЗ - северо-западный.
Видимость - горизонтальная дальность видимости в метрах или километрах. При видимости от 1 до 10 км при отсутствии осадков обычно наблюдается дымка, при ухудшении видимости до 1 км и менее - туман. В сухую погоду видимость может ухудшаться дымом, пылью или мглою.
Явления - указаны атмосферные явления, наблюдавшиеся в срок или в последний час перед сроком; фигурными скобками обозначены явления, наблюдавшиеся между сроками (за 1-3 часа до срока); квадратными скобками обозначены град или гололедные отложения с указанием их диаметра в мм.
Облачность - указаны через наклонную черту общая и нижняя облачность в баллах и высота нижней границы облаков в метрах; квадратными скобками обозначены формы облаков: Ci - перистые, Cs - перисто-слоистые, Cc - перисто-кучевые, Ac - высококучевые, As - высокослоистые, Sc - слоисто-кучевые, Ns - слоисто-дождевые, Cu - кучевые, Cb - кучево-дождевые. Подробнее классификацию облаков см. в Атласе облаков (PDF).
T - Температура воздуха - температура, измеренная на высоте 2 м над землей.
Td - Температура точки росы - температура, при понижении до которой содержащийся в воздухе водяной пар достигнет насыщения.
f - Относительная влажность воздуха - влажноcть воздуха, измеренная на высоте 2 м над землей.
Te - Эффективная температура - температура, которую ощущает одетый по сезону человек в тени. Характеристика душности погоды. При расчете учитывается влияние влажности воздуха и скорости ветра на теплоощущения человека.
Tes - Эффективная температура на солнце - температура, которую ощущает человек, с поправкой на солнечный нагрев. Характеристика знойности погоды. Зависит от высоты солнца над горизонтом, облачности и скорости ветра. Ночью, в пасмурную погоду, а также при ветре 12 м/с и более поправка равна нулю.
P - Атмосферное давление - приведенное к уровню моря атмосферное давление.
Po - Атмосферное давление - измеренное на уровне метеостанции атмосферное давление.
Tmin - Минимальная температура - минимум температуры воздуха на высоте 2 м над землей.
Tmax - Максимальная температура - максимум температуры воздуха на высоте 2 м над землей.
R - Количество осадков - Количество выпавших осадков за период времени, мм. При наведении курсора мыши на число - период времени, за который выпало указанное количество осадков.
R24 - Количество осадков - Количество выпавших осадков за 24 часа, мм.
S - Снежный покров - Высота снежного покрова, см. При наведении курсора мыши на число - состояние снежного покрова и степень покрытия местности в баллах.